Other Public Products
Issued by NWS Grand Forks, ND

Home | Current Version | Previous Version | Text Only | Print | Product List | Glossary On
Versions: 1 2 3 4 5 6 7 8 9 10 11 12 13 14 15 16 17 18 19 20 21 22 23 24 25 26 27 28 29 30 31 32 33 34 35 36 37 38 39 40 41 42 43 44 45 46 47 48 49 50
000
FPUS83 KFGF 271410
OPUFGF
PRAIRIE TO PINES WEATHER ROUNDUP
NATIONAL WEATHER SERVICE EASTERN NORTH DAKOTA/GRAND FORKS ND
900 AM CDT TUE SEP 27 2016

 **SATELLITE DATA USED TO AUGMENT SKY COVER AT AUTOMATED STATIONS**
 *****  WEATHER ACROSS EASTERN NORTH DAKOTA  *****

CITY           SKY/WX    TMP DP  RH WIND       PRES   REMARKS
GRAND FORKS    MOSUNNY   47  40  76 NW13      29.91S
GRAND FORKS AF SUNNY     48  39  70 N13       29.92S
GRAND CITY NWS NOT AVBL
BUXTON         NOT AVBL
DEVILS LAKE    SUNNY     45  38  76 NW10      29.98R
FARGO          SUNNY     49  39  68 NW14      29.92S
WAHPETON ARPT  SUNNY     46  36  66 NW13      29.93S
$$

 *****  WEATHER ACROSS CENTRAL AND WESTERN NORTH DAKOTA  *****

CITY           SKY/WX    TMP DP  RH WIND       PRES   REMARKS
JAMESTOWN      SUNNY     48  40  73 NW6       29.96F
BISMARCK       SUNNY     44  40  85 CALM      30.03S
MINOT          SUNNY     46  37  71 SW3       29.99F
MINOT AFB      SUNNY     46  38  76 W2        29.99S
GARRISON         N/A     43  38  82 N5        30.01F
WILLISTON      SUNNY     45  41  86 CALM      30.01S
DICKINSON      SUNNY     49  45  86 CALM      30.01S
HETTINGER      SUNNY     46  43  89 CALM      30.04S
$$

 *****  OTHER OBSERVATIONS NORTHEAST NORTH DAKOTA  *****

CITY           SKY/WX    TMP DP  RH WIND       PRES   REMARKS
WALHALLA       FAIR      46  43  87 NW13G18   29.94R
LANGDON        FAIR      45  37  76 NW12      29.95R
CAVALIER       CLOUDY    46  41  81 NW13G18   29.93R
GRAFTON        PTSUNNY   46  43  87 NW13G18   29.93S
CANDO          FAIR      41  39  93 NW9       30.00R
FORT TOTTEN      N/A     47  45  92 CALM      29.95S
ROLLA          FAIR      46  36  66 N10       29.99R
RUGBY          FAIR      39  37  93 W6        29.99S
 ***** THE ABOVE OBSERVATIONS ARE NON NWS ARE NOT QUALITY
        CONTROLLED AND MAY MIS-REPORT RAIN FOR SNOW...
$$

 *****  OTHER OBSERVATIONS SOUTHEAST NORTH DAKOTA *****

CITY           SKY/WX    TMP DP  RH WIND       PRES   REMARKS
COOPERSTOWN    FAIR      45  39  81 W12       29.95F
VALLEY CITY    FAIR      45  39  81 NW12      29.97F
OAKES          NOT AVBL
GWINNER        FAIR      48  39  71 NW8       29.96S
SHEYENNE NWR     N/A     45  38  76 NW7       29.95S
BUFFALO        NOT AVBL
WYNDMERE       NOT AVBL
 ***** THE ABOVE OBSERVATIONS ARE NON NWS ARE NOT QUALITY
       CONTROLLED AND MAY MIS-REPORT RAIN FOR SNOW...
$$

  *****  WEATHER ACROSS NORTHERN MINNESOTA  *****

CITY           SKY/WX    TMP DP  RH WIND       PRES   REMARKS
FLAG ISLAND    CLOUDY    48  45  87 NW22      29.78R
WARROAD        CLOUDY    48  45  87 NW16G22   29.81S
ROSEAU         CLOUDY    46  43  87 W10G18    29.82S
HALLOCK        CLOUDY    48  45  87 NW14G22   29.89S
THF RVR FALLS  CLOUDY    46  42  86 NW13      29.88S
HALSTAD          N/A     47  39  74 NW12        N/A
FOSSTON        CLOUDY    43  39  87 W12G18    29.87S
BAUDETTE       LGT RAIN  49  42  77 NW17G26   29.76S
WASKISH        CLOUDY    48  45  87 NW13      29.78R
CROOKSTON      SUNNY     45  43  93 NW13      29.90S
$$
  *****  WEATHER ACROSS CENTRAL AND WEST MINNESOTA  *****

CITY           SKY/WX    TMP DP  RH WIND       PRES   REMARKS
BEMIDJI        CLOUDY    45  41  86 NW18      29.81R
PARK RAPIDS    MOSUNNY   46  40  79 NW13      29.83R
WADENA         SUNNY     46  41  81 NW14G23   29.84F
DETROIT LAKES  SUNNY     45  41  87 NW17      29.89S
MOORHEAD       SUNNY     46  37  71 NW13      29.92S
FERGUS FALLS   SUNNY     43  39  87 NW7       29.94S
ELBOW LAKE     FAIR      43  39  84 NW9       29.92S
MORRIS MN      SUNNY     48  39  71 NW14      29.91F
STAPLES        SUNNY     46  41  81 W13G18    29.83S
WHEATON        NOT AVBL
$$
  *****  WEATHER ELSEWHERE ACROSS MINNESOTA  *****

CITY           SKY/WX    TMP DP  RH WIND       PRES   REMARKS
DULUTH         CLOUDY    49  44  83 NW14G23   29.68R
INTRNTL FALLS  LGT RAIN  47  45  93 NW10      29.72R
ELY            DRIZZLE   46  45  93 NW12G21   29.63S
CLOQUET        CLOUDY    50  43  76 W17G23    29.70S
BRAINERD       PTSUNNY   48  42  80 W12       29.80S
HIBBING        CLOUDY    47  43  86 NW20G26   29.70R
ALEXANDRIA     SUNNY     47  40  76 NW13      29.89F
SAINT CLOUD    SUNNY     49  42  77 W17G28    29.83F
MINNEAPOLIS    MOSUNNY   52  41  66 W17       29.83F
$$

  *****  WEATHER ACROSS SOUTH DAKOTA  *****

CITY           SKY/WX    TMP DP  RH WIND       PRES   REMARKS
SIOUX FALLS    SUNNY     53  40  61 W8        30.00F
BROOKINGS      SUNNY     46  41  82 NW3       29.98
WATERTOWN      SUNNY     49  39  68 W7        29.97F
HURON          SUNNY     47  39  74 W6        30.01F
SISSETON         N/A     52  37  56 NW10      29.94S
ABERDEEN       SUNNY     51  39  63 NW7       29.99F
MITCHELL       SUNNY     50  40  68 W8        30.03S
PIERRE         SUNNY     49  40  71 CALM      30.02F
MOBRIDGE       SUNNY     51  44  77 NW5       30.00F
RAPID CITY     SUNNY     54  46  74 W3        30.08S
$$

  *****  SOME WEATHER IN NEARBY STATES *****

CITY           SKY/WX    TMP DP  RH WIND       PRES   REMARKS
GLASGOW MT     CLEAR     48  43  82 SE7       29.96S
GREAT FALLS MT CLEAR     58  41  53 S15       30.04S
CHEYENNE WY    CLOUDY    48  36  63 W10       30.26F
SCOTTSBLUFF NE CLOUDY    43  40  89 NW6       30.18S
OMAHA NE       MOSUNNY   57  48  72 CALM      30.04S
DES MOINES IA  MOSUNNY   56  46  69 W5        29.99S
DAVENPORT IA   SUNNY     56  41  57 W9        29.92S
CHICAGO IL     MOSUNNY   57  39  51 SW14      29.83S
EAU CLAIRE WI  CLOUDY    51  42  71 W14       29.75S
LA CROSSE WI   SUNNY     54  41  61 W16       29.80F
$$

  *****  SOME NATIONAL WEATHER *****

CITY           SKY/WX    TMP DP  RH WIND       PRES   REMARKS
LA GUARDIA NY  CLOUDY    68  60  75 NW6       29.94R
RALEIGH NC     PTSUNNY   72  67  84 CALM      30.00S
ATLANTA GA     PTSUNNY   76  67  73 SW6       30.00R
NEW ORLEANS LA PTSUNNY   81  72  74 N8        29.96R
OKLAHOMA CITY  MOSUNNY   59  51  75 CALM      30.16S
ALBUQUERQUE NM CLOUDY    52  35  52 N10       30.31R
SALT LAKE CITY CLEAR     53  47  79 SE8       30.23S
LOS ANGELES CA PTCLDY    77  39  25 NE9       29.84S
BOISE ID       CLEAR     55  42  61 SE3       30.11S
SEATTLE WA     CLOUDY    61  57  87 N5        30.17R
$$

*** WEATHER ACROSS MANITOBA...SASKATCHEWAN AND ONTARIO ***
                ***ONTARIO***

CITY           SKY/WX    TMP DP  RH WIND       PRES   REMARKS
GERALDTON      CLOUDY    50  48  93 NE10      29.47R
THUNDER BAY    LGT RAIN  48  46  93 W10       29.51R
SIOUX LOOKOUT  LGT RAIN  43  43 100 N8G18     29.66R FOG
TORONTO        MOSUNNY   61  45  55 SW13      29.78S
BIG TROUT LK   CLOUDY    48  48 100 NE8       29.70R FOG
PICKLE LAKE    LGT RAIN  45  43  93 N7        29.63R FOG
DRYDEN         LGT RAIN  45  43  93 N9G17     29.69R
KENORA         LGT RAIN  45  43  93 NW13G21   29.75S
$$
                *** MANITOBA***

CITY           SKY/WX    TMP DP  RH WIND       PRES   REMARKS
BRANDON        SUNNY     39  36  87 W7        29.99R
DAUPHIN        SUNNY     41  37  87 W6        30.00R
ISLAND LAKE    LGT RAIN  43  43 100 N14G23    29.86R
PILOT MOUND      N/A     41  36  81 NW9         N/A
THE PAS        MOSUNNY   39  37  93 CALM      30.01R
THOMPSON       CLOUDY    41  36  81 N9        30.00S
WINNIPEG       PTSUNNY   48  45  87 NW12      29.89S
LYNN LAKE      FOG       32  32 100 E7        30.02R VSB 1/8
CHURCHILL      CLOUDY    41  41 100 N20       30.01R FOG
GILLAM         DRIZZLE   43  41  93 N16G24    29.93R
$$
                ***SASKATCHEWAN***

CITY           SKY/WX    TMP DP  RH WIND       PRES   REMARKS
ESTEVAN        MOSUNNY   43  41  93 S3        30.00S
KINDERSLEY     PTCLDY    45  41  87 S6        29.82S
LLOYDMINSTER   PTCLDY    45  41  87 SE5       29.78S
PRINCE ALBERT  PTCLDY    39  37  93 E8        29.91S
REGINA         CLEAR     45  36  70 SE14      29.95F
YORKTON        SUNNY     43  39  87 S3        29.99F   C1F1C2F2C3F3C4F4C5F5C6F6C7F7C8F8C9F9CaFaCbFbCcFcCdFdCe!


USA.gov is the U.S. government's official web portal to all federal, state and local government web resources and services.